Bennington, VT

11:48 AM EST on December 12, 2019 (GMT -0500)
Morse State

Weather History for KDDH - September, 2019

Change the Weather History Date:

Thursday, September 5, 2019

  Actual Average Record
Temperature  
Mean Temperature 57 °F 63 °F  
Max Temperature 68 °F 74 °F 91 °F (2018)
Min Temperature 46 °F 51 °F 37 °F (2000)
Degree Days  
Heating Degree Days 8 4  
Month to date heating degree days 14 17  
Since 1 July heating degree days 49 89  
Cooling Degree Days 0 1  
Month to date cooling degree days 6 9  
Year to date cooling degree days 357 297  
Growing Degree Days 6 (Base 50)    
Moisture  
Dew Point 50 °F    
Average Humidity 75    
Maximum Humidity 93    
Minimum Humidity 56    
Precipitation  
Precipitation 0.00 in 0.10 in 0.85 in (2017)
Month to date precipitation 1.46 0.51  
Year to date precipitation 28.93 28.05  
Sea Level Pressure  
Sea Level Pressure 30.09 in    
Wind  
Wind Speed 2 mph (WSW)    
Max Wind Speed 9 mph    
Max Gust Speed 13 mph    
Visibility 10 miles    
Events      
T = Trace of Precipitation, MM = Missing Value Source: NWS Daily Summary

Daily Weather History Graph

Daily Weather History Graph

Search for Another Location

Airport or City:

Astronomy

Sep. 05, 2019 Rise Set
Actual Time 6:21 AM EDT 7:21 PM EDT
Civil Twilight 5:52 AM EDT 7:49 PM EDT
Nautical Twilight 5:18 AM EDT 8:24 PM EDT
Astronomical Twilight 4:42 AM EDT 9:00 PM EDT
Moon 1:35 PM EDT (9/5) 11:24 PM EDT (9/5)
Length of Visible Light 13h 57m
Length of Day
12h 59m
Waxing Crescent, 45% of the Moon is Illuminated
Sep 5
Waxing Crescent
Sep 5
First Quarter
Sep 14
Full
Sep 21
Last Quarter
Sep 28
New

Hourly Weather History & Observations

Time (EDT) Temp. Dew Point Humidity Pressure Visibility Wind Dir Wind Speed Gust Speed Precip Events Conditions
12:15 AM 61.0 °F 54.0 °F 78% 30.05 in 10.0 mi Variable 3.5 mph - N/A   Overcast
12:54 AM 60.1 °F 51.1 °F 72% 30.06 in 10.0 mi Variable 4.6 mph - N/A   Overcast
1:54 AM 57.9 °F 48.9 °F 72% 30.05 in 10.0 mi Variable 3.5 mph - N/A   Overcast
2:54 AM 55.9 °F 48.9 °F 77% 30.05 in 10.0 mi NW 3.5 mph - N/A   Clear
3:54 AM 51.1 °F 48.0 °F 89% 30.05 in 10.0 mi Calm Calm - N/A   Clear
4:54 AM 48.9 °F 46.9 °F 93% 30.07 in 10.0 mi SSW 4.6 mph - N/A   Clear
5:54 AM 48.0 °F 46.0 °F 93% 30.08 in 7.0 mi Calm Calm - N/A   Clear
6:54 AM 46.9 °F 45.0 °F 93% 30.11 in 10.0 mi Calm Calm - N/A   Clear
7:54 AM 53.1 °F 48.9 °F 86% 30.13 in 10.0 mi Calm Calm - N/A   Clear
8:54 AM 57.9 °F 50.0 °F 75% 30.14 in 10.0 mi Calm Calm - N/A   Clear
9:54 AM 59.0 °F 48.0 °F 67% 30.14 in 10.0 mi Calm Calm - N/A   Clear
10:28 AM 63.0 °F 51.1 °F 65% 30.15 in 10.0 mi NW 4.6 mph - N/A   Mostly Cloudy
10:49 AM 62.6 °F 48.2 °F 59% 30.14 in 10.0 mi Calm Calm - N/A   Scattered Clouds
10:54 AM 64.0 °F 50.0 °F 60% 30.14 in 10.0 mi Variable 4.6 mph - N/A   Partly Cloudy
11:54 AM 64.9 °F 50.0 °F 58% 30.11 in 10.0 mi Variable 4.6 mph - N/A   Partly Cloudy
12:54 PM 66.0 °F 50.0 °F 56% 30.11 in 10.0 mi Variable 6.9 mph - N/A   Clear
1:54 PM 66.0 °F 50.0 °F 56% 30.10 in 10.0 mi WSW 4.6 mph - N/A   Clear
2:54 PM 66.9 °F 50.0 °F 54% 30.09 in 10.0 mi Variable 3.5 mph - N/A   Clear
3:54 PM 66.9 °F 51.1 °F 57% 30.08 in 10.0 mi Calm Calm - N/A   Clear
4:54 PM 66.0 °F 52.0 °F 60% 30.08 in 10.0 mi WSW 3.5 mph - N/A   Clear
6:54 PM 62.1 °F 55.9 °F 80% 30.08 in 10.0 mi Calm Calm - N/A   Clear
7:54 PM 57.0 °F 54.0 °F 89% 30.09 in 10.0 mi South 3.5 mph - N/A   Clear
8:54 PM 54.0 °F 51.1 °F 90% 30.08 in 6.0 mi Calm Calm - N/A   Clear
9:54 PM 51.1 °F 48.9 °F 92% 30.09 in 10.0 mi South 4.6 mph - N/A   Clear
10:54 PM 50.0 °F 48.0 °F 93% 30.09 in 10.0 mi Calm Calm - N/A   Clear
11:54 PM 48.9 °F 46.9 °F 93% 30.08 in 10.0 mi Calm Calm - N/A   Clear